User: anonymous   Login
Location: Unspecified
(0.0000°N, 0.0000°E)
Time: 17:18:42
(UTC+00:00)
Language:

COSMOS 2409 - Orbit

View from above orbital plane
View from above orbital plane
View from above satellite
View from above satellite

Ground track
Ground track

The orbit data is extracted from the following two-line orbital elements,

1 28380U 04028A   17295.53123950  .00000023  00000-0  79337-5 0  9996
2 28380  82.9587 254.0461 0040910  87.2107 273.3731 13.76045489665519
Epoch (UTC): 22 October 2017 12:44:59
Eccentricity: 0.0040910
inclination: 82.9587°
perigee height: 948 km
apogee height: 1008 km
right ascension of ascending node: 254.0461°
argument of perigee: 87.2107°
revolutions per day: 13.76045489
mean anomaly at epoch: 273.3731°
orbit number at epoch: 66551

The dashed part of the orbit path shows where the satellite is in the earth's shadow,  

DLR